Flag for Canada Weather past 2 weeks in Vaughan, Ontario, Canada

Now
54 °F

Passing clouds.


Feels Like: 54 °F
Forecast: 55 / 70 °F
Wind: 2 mph from North

Location: Toronto Buttonville

Current Time: Aug 28, 2014 at 5:26:01 AM

Latest Report: Aug 28, 2014 at 5:00 AM


Visibility: 15 mi

Pressure: 30.05 "Hg

Humidity: 88%

Dew point: 50 °F

Location of VaughanLocation

Historic Weather in Vaughan — Graph

°F

Vaughan temperature yesterday

Maximum temperature yesterday: 73 °F (at 1:00 PM)
Minimum temperature yesterday: 59 °F (at 11:00 PM)
Average temperature yesterday: 67 °F

Past Weeks' High & Low Weather Summary

 TemperatureHumidityPressure
High88 °F (Aug 26, 6:00 PM)100% (Aug 17, 6:00 AM)30.20 "Hg (Aug 17, 6:00 AM)
Low50 °F (Aug 19, 4:00 AM)38% (Aug 15, 5:00 PM)29.71 "Hg (Aug 13, 4:00 AM)
Average66 °F76%29.97 "Hg
* Reported Aug 13 4:00 AM — Aug 28 4:00 AM, Vaughan, Weather by CustomWeather, © 2014

Note: Actual official high and low records may vary slightly from our data, if they occured in-between our weather recording intervals... More about our weather records

Advertising

Vaughan weather history for previous 24 hours

 ConditionsComfort  
Time TempWeatherWind HumidityBarometerVisibility
4:00 AM
Aug 28
55 °FPassing clouds.5 mph82%30.06 "Hg15 mi
3:00 AM57 °FPassing clouds.6 mph77%30.06 "Hg15 mi
2:00 AM57 °FPassing clouds.7 mph77%30.06 "Hg15 mi
1:00 AM57 °FClear.8 mph82%30.06 "Hg15 mi
12:00 AM59 °FClear.7 mph77%30.07 "Hg15 mi
11:00 PM
Aug 27
59 °FClear.6 mph77%30.07 "Hg15 mi
10:00 PM61 °FPassing clouds.6 mph72%30.07 "Hg15 mi
9:00 PM63 °FPassing clouds.8 mph73%30.07 "Hg15 mi
8:00 PM64 °FPassing clouds.9 mph68%30.06 "Hg15 mi
7:00 PM68 °FPassing clouds.13 mph60%30.04 "Hg15 mi
6:00 PM70 °FPassing clouds.9 mph60%30.04 "Hg15 mi
5:00 PM72 °FScattered clouds.14 mph57%30.04 "Hg15 mi
4:00 PM72 °FScattered clouds.10 mph61%30.03 "Hg15 mi
3:00 PM72 °FPartly sunny.12 mph61%30.04 "Hg15 mi
1:00 PM73 °FPartly sunny.9 mph53%30.04 "Hg15 mi
12:00 PM72 °FPassing clouds.13 mph61%30.06 "Hg15 mi
11:00 AM70 °FScattered clouds.8 mph64%30.07 "Hg15 mi
10:00 AM68 °FPassing clouds.6 mph64%30.07 "Hg15 mi
9:00 AM66 °FPassing clouds.9 mph68%30.07 "Hg15 mi
8:00 AM63 °FPassing clouds.8 mph77%30.06 "Hg15 mi
7:00 AM61 °FPassing clouds.9 mph83%30.05 "Hg15 mi
6:00 AM63 °FPassing clouds.10 mph77%30.05 "Hg15 mi
5:00 AM64 °FPassing clouds.8 mph73%30.03 "Hg15 mi
Weather by CustomWeather, © 2014

See weather overviewHow to use our weather pages